Location: Chiroubles
(46.1812°N, 4.6660°E)
Time: 07:14:30
(UTC+00:00)

Transit 4A - Pass Details

Date: 04 December 2020
Orbit: 864 x 981 km, 66.8° (Epoch: 17 January)

Event Time Altitude Azimuth Distance (km) Brightness Sun altitude
Rises 14:03:39 0° 328° (NNW) 3,687 10.8 13.3°
Reaches altitude 10° 14:06:24 10° 335° (NNW) 2,729 10.1 13.0°
Maximum altitude 14:12:27 43° 46° (NE) 1,325 8.5 12.4°
Drops below altitude 10° 14:18:21 10° 118° (ESE) 2,656 10.2 11.8°
Sets 14:20:59 0° 125° (SE) 3,580 10.9 11.5°
